Time,TemperatureF,DewpointF,PressureIn,WindDirection,WindDirectionDegrees,WindSpeedMPH,WindSpeedGustMPH,Humidity,HourlyPrecipIn,Conditions,Clouds,dailyrainin,SolarRadiationWatts/m^2,SoftwareType,DateUTC
2013-07-16 12:01:00,74.0,44.0,-100.00,SSW,207,2.0,6.0,34,-99.99,,,0.00,412.000000,,2013-07-16 18:01:00,
2013-07-16 12:11:00,74.0,44.0,-100.00,SSW,207,2.0,6.0,34,-99.99,,,0.00,412.000000,,2013-07-16 18:11:00,
2013-07-16 12:22:00,74.0,44.0,-100.00,SSW,207,2.0,6.0,34,-99.99,,,0.00,412.000000,,2013-07-16 18:22:00,
2013-07-16 12:32:00,74.0,44.0,-100.00,SSW,207,2.0,6.0,34,-99.99,,,0.00,412.000000,,2013-07-16 18:32:00,
2013-07-16 13:01:00,81.0,45.0,-100.00,NW,326,4.0,10.0,28,0.00,,,0.00,565.000000,,2013-07-16 19:01:00,
2013-07-16 13:11:00,81.0,45.0,-100.00,NW,326,4.0,10.0,28,0.00,,,0.00,565.000000,,2013-07-16 19:11:00,
2013-07-16 13:22:00,81.0,45.0,-100.00,NW,326,4.0,10.0,28,0.00,,,0.00,565.000000,,2013-07-16 19:22:00,
2013-07-16 13:32:00,81.0,45.0,-100.00,NW,326,4.0,10.0,28,0.00,,,0.00,565.000000,,2013-07-16 19:32:00,
2013-07-16 14:03:00,82.0,43.0,-100.00,NNE,22,4.0,10.0,25,0.00,,,0.00,662.000000,,2013-07-16 20:03:00,
2013-07-16 14:11:00,82.0,43.0,-100.00,NNE,22,4.0,10.0,25,0.00,,,0.00,662.000000,,2013-07-16 20:11:00,
2013-07-16 14:22:00,82.0,43.0,-100.00,NNE,22,4.0,10.0,25,0.00,,,0.00,662.000000,,2013-07-16 20:22:00,
2013-07-16 14:32:00,82.0,43.0,-100.00,NNE,22,4.0,10.0,25,0.00,,,0.00,662.000000,,2013-07-16 20:32:00,
2013-07-16 16:11:00,83.0,48.0,-100.00,North,353,3.0,9.0,30,-99.99,,,0.00,271.000000,,2013-07-16 22:11:00,
2013-07-16 16:22:00,83.0,48.0,-100.00,North,353,3.0,9.0,30,-99.99,,,0.00,271.000000,,2013-07-16 22:22:00,
2013-07-16 16:33:00,83.0,48.0,-100.00,North,353,3.0,9.0,30,-99.99,,,0.00,271.000000,,2013-07-16 22:33:00,
2013-07-16 17:01:00,83.0,49.0,-100.00,North,350,6.0,10.0,31,0.00,,,0.00,306.000000,,2013-07-16 23:01:00,
2013-07-16 17:11:00,83.0,49.0,-100.00,North,350,6.0,10.0,31,0.00,,,0.00,306.000000,,2013-07-16 23:11:00,
2013-07-16 17:22:00,83.0,49.0,-100.00,North,350,6.0,10.0,31,0.00,,,0.00,306.000000,,2013-07-16 23:22:00,
2013-07-16 17:32:00,83.0,49.0,-100.00,North,350,6.0,10.0,31,0.00,,,0.00,306.000000,,2013-07-16 23:32:00,
2013-07-16 20:22:00,68.0,61.0,-100.00,NW,320,4.0,11.0,79,-99.99,,,0.20,184.000000,,2013-07-17 02:22:00,
2013-07-16 20:32:00,68.0,61.0,-100.00,NW,320,4.0,11.0,79,-99.99,,,0.20,184.000000,,2013-07-17 02:32:00,
2013-07-16 23:32:00,62.0,60.0,-100.00,East,94,6.0,9.0,94,-99.99,,,-99.99,0.000000,,2013-07-17 05:32:00,